STARLINK-1701

Last updated on Fri Nov 06 2020 00:02:03 GMT+0000 (Coordinated Universal Time)

1 46550U 20070U 20310.83334491 -.01085903 00000-0 -19836-1 0 9996 2 46550 53.0010 293.1031 0001163 61.9090 292.0911 15.51635931 5587

Satellite not in orbit